Weather in Rzeszow

Poland     50°02′14″N   22°00′17″E
temp.,
°C
wind,
m/s
gust,
m/s
humid.,
%
clouds,
%
prec.,
mm/h
press.,
hPa
HPBL,
m
17 may, mon
mon1723:00+10s34916 0.0 100795
02:00+8ssw35945 0.0 100780
05:00+7s33940 0.0 100745
08:00+12ssw45851 0.0 1006354
11:00+17ssw446615 0.0 10051241
14:00+19ssw34571 0.0 10041605
17:00+19sse245527 0.0 10021640
20:00+13s228013 0.8 100313
18 may, tue
tue1823:00+11w5898100 0.8 1003289
02:00+10wnw3798100 0.9 1003430
05:00+10wnw61196100 0.4 1003553
08:00+10wnw71196100 0.6 1005649
11:00+9wnw61196100 1.6 1006801
14:00+9wnw71295100 3.8 1007696
17:00+11wnw51294100 2.4 1008711
20:00+11wnw41191100 3.1 1008528
19 may, wed
wed1923:00+10wnw51393100 0.1 1009478
02:00+8w61395100 0.1 1010409
05:00+7w412953 0.0 1011381
08:00+11wnw698745 0.0 1012636
11:00+14wnw6772100 0.1 10121167
14:00+15wnw456450 0.3 10111371
17:00+13wnw4685100 1.5 1012410
20:00+11nw3689100 2.3 1012116
20 may, thu
thu2023:00+8nnw349426 0.1 101280
02:00+7nw3997100 0.1 1012251
05:00+7nw41098100 0.1 1012355
08:00+9nnw5993100 0.5 1013562
11:00+12nnw7974100 0.1 10131281
14:00+14nnw7970100 0.8 10131628
17:00+13nw71173100 0.9 10131026
20:00+10nw4978100 1.0 1015207
21 may, fri
fri2123:00+8w3688100 0.0 1016151
02:00+7w3796100 0.0 1018189
05:00+6wnw4995100 0.0 1019328
08:00+9wnw578133 0.0 1020807
11:00+12wnw786065 0.3 10201791
14:00+13w675821 0.3 10191661
17:00+13wnw58595 0.0 10181798
20:00+9w22815 0.0 101812